Tracking 19846 objects as of 19-Sep-2019
HD Live streaming from Space Station
objects crossing your sky now

TRANSIT 11 DEB

Track TRANSIT 11 DEB now!
10-day predictions


NORAD ID: 11991
Int'l Code: 1966-005H
Perigee: 836.5 km
Apogee: 1,098.3 km
Inclination: 90.2 °
Period: 104.3 minutes
Semi major axis: 7338 km
RCS: 0.2272 m2 (medium)
Launch date: January 28, 1966
Source: United States (US)
Launch site: AIR FORCE WESTERN TEST RANGE (AFWTR)

Note: This is SATELLITE DEBRIS
aabbcc
Your satellite tracking list
Your tracking list is empty




NASA's NSSDC Master Catalog

Two Line Element Set (TLE):
1 11991U 66005H   19261.15077736 +.00000174 +00000-0 +13996-3 0  9996
2 11991 090.2286 289.6425 0178398 309.8209 113.7670 13.81025788680982
Source of the keplerian elements: AFSPC